DW1035 Weather Reports


Display with metric or nautical units.
time (UTC)temp
F
wind
direction
speed
MPH
gust
MPH
rain 1hr
in
rain 24hr
in
rain mn
in
humidity
%
barometer
mb
20260509120007 46 0 0.0 0.0 0.00 0.00 0.00 72 1012.1
20260509114507 43 0 0.0 0.0 0.00 0.00 0.00 74 1012.1
20260509114006 42 0 0.0 0.0 0.00 0.00 0.00 74 1012.0
20260509113507 42 0 0.0 0.0 0.00 0.00 0.00 78 1012.0
20260509111007 38 0 0.0 0.0 0.00 0.00 0.00 82 1012.1
20260509110007 37 0 0.0 0.0 0.00 0.00 0.00 85 1012.1
20260509104507 36 0 0.0 0.0 0.00 0.00 0.00 88 1011.9
20260509101507 33 0 0.0 0.0 0.00 0.00 0.00 92 1011.5
20260509101007 33 0 0.0 0.0 0.00 0.00 0.00 93 1011.4
20260509100507 33 0 0.0 0.0 0.00 0.00 0.00 93 1011.4
20260509100006 33 0 0.0 0.0 0.00 0.00 0.00 93 1011.2
20260509094007 33 0 0.0 0.0 0.00 0.00 0.00 92 1010.9
20260509093507 33 0 0.0 0.0 0.00 0.00 0.00 91 1010.9
20260509093006 33 0 0.0 0.0 0.00 0.00 0.00 91 1010.8
20260509091506 34 0 0.0 0.0 0.00 0.00 0.00 90 1010.6
20260509090507 34 0 0.0 0.0 0.00 0.00 0.00 90 1010.5
20260509090007 34 0 0.0 0.0 0.00 0.00 0.00 90 1010.6
20260509084506 35 0 0.0 0.0 0.00 0.00 0.00 90 1010.4
20260509084007 35 0 0.0 0.0 0.00 0.00 0.00 90 1010.4
20260509083506 35 0 0.0 0.0 0.00 0.00 0.00 90 1010.4
20260509083006 35 0 0.0 0.0 0.00 0.00 0.00 90 1010.5
20260509081506 35 0 0.0 0.0 0.00 0.00 0.00 89 1010.6
20260509081006 35 0 0.0 0.0 0.00 0.00 0.00 89 1010.7
20260509080006 35 0 0.0 0.0 0.00 0.00 0.00 88 1010.7
20260509074506 36 0 0.0 0.0 0.00 0.00 0.00 86 1010.7
20260509074006 36 0 0.0 0.0 0.00 0.00 0.00 86 1010.6
20260509073506 36 0 0.0 0.0 0.00 0.00 0.00 85 1010.6
20260509073006 37 0 0.0 0.0 0.00 0.00 0.00 85 1010.6
20260509071506 37 0 0.0 0.0 0.00 0.00 0.00 84 1010.6
20260509071006 38 0 0.0 0.0 0.00 0.00 0.00 83 1010.6
20260509070506 38 0 0.0 0.0 0.00 0.00 0.00 82 1010.6
20260509070006 38 0 0.0 0.0 0.00 0.00 0.00 83 1010.6
20260509064506 39 0 0.0 0.0 0.00 0.00 0.00 81 1010.5
20260509064006 39 0 0.0 0.0 0.00 0.00 0.00 80 1010.4
20260509063506 39 0 0.0 0.0 0.00 0.00 0.00 79 1010.4
20260509063006 39 0 0.0 0.0 0.00 0.00 0.00 79 1010.4
20260509061506 40 0 0.0 0.0 0.00 0.00 0.00 76 1010.3
20260509061005 40 0 0.0 0.0 0.00 0.00 0.00 76 1010.3
20260509060506 41 0 0.0 0.0 0.00 0.00 0.00 76 1010.3
20260509060006 41 0 0.0 0.0 0.00 0.00 0.00 74 1010.3
20260509054506 42 0 0.0 0.0 0.00 0.00 0.00 73 1010.2
20260509054005 42 0 0.0 0.0 0.00 0.00 0.00 72 1010.2
20260509053506 42 0 0.0 0.0 0.00 0.00 0.00 71 1010.1
20260509053006 42 0 0.0 0.0 0.00 0.00 0.00 71 1010.1
20260509051506 44 0 0.0 0.0 0.00 0.00 0.00 71 1010.0
20260509051005 44 0 0.0 0.0 0.00 0.00 0.00 69 1010.0
20260509050505 44 0 0.0 0.0 0.00 0.00 0.00 68 1010.1
20260509050006 44 0 0.0 0.0 0.00 0.00 0.00 70 1010.1
20260509044005 45 0 0.0 0.0 0.00 0.00 0.00 67 1010.1
20260509043505 45 0 0.0 0.0 0.00 0.00 0.00 68 1010.1
20260509043005 45 0 0.0 0.0 0.00 0.00 0.00 67 1010.1
20260509041505 46 0 0.0 0.0 0.00 0.00 0.00 64 1010.1
20260509041005 46 0 0.0 0.0 0.00 0.00 0.00 62 1010.0
20260509040506 46 0 0.0 0.0 0.00 0.00 0.00 62 1009.9
20260509040005 46 0 0.0 0.0 0.00 0.00 0.00 66 1009.9
20260509034505 46 0 0.0 0.0 0.00 0.00 0.00 65 1009.7
20260509034005 46 0 0.0 0.0 0.00 0.00 0.00 62 1009.6
20260509033505 46 0 0.0 0.0 0.00 0.00 0.00 61 1009.6
20260509033005 46 0 0.0 0.0 0.00 0.00 0.00 64 1009.6
20260509031505 46 0 0.0 0.0 0.00 0.00 0.00 62 1009.5
20260509031005 46 0 0.0 0.0 0.00 0.00 0.00 62 1009.5
20260509030505 46 0 0.0 0.0 0.00 0.00 0.00 63 1009.4
20260509030005 46 0 0.0 0.0 0.00 0.00 0.00 62 1009.4
20260509024505 46 0 0.0 0.0 0.00 0.00 0.00 63 1009.2
20260509024005 46 0 0.0 0.0 0.00 0.00 0.00 62 1009.2
20260509023505 46 0 0.0 0.0 0.00 0.00 0.00 64 1009.1
20260509023005 46 0 0.0 0.0 0.00 0.00 0.00 65 1009.1
20260509021504 46 0 0.0 0.0 0.00 0.00 0.00 62 1008.9
20260509021005 46 0 0.0 0.0 0.00 0.00 0.00 61 1008.8
20260509020505 46 0 0.0 0.0 0.00 0.00 0.00 60 1008.7
20260509020005 46 0 0.0 0.0 0.00 0.00 0.00 60 1008.6
20260509014504 46 0 0.0 0.0 0.00 0.00 0.00 60 1008.4
20260509014005 46 0 0.0 0.0 0.00 0.00 0.00 60 1008.4
20260509013504 46 0 0.0 0.0 0.00 0.00 0.00 57 1008.2
20260509013004 46 0 0.0 0.0 0.00 0.00 0.00 57 1008.2
20260509011504 47 0 0.0 0.0 0.00 0.00 0.00 57 1007.9
20260509011004 47 0 0.0 0.0 0.00 0.00 0.00 55 1007.8
20260509010005 48 0 0.0 0.0 0.00 0.00 0.00 56 1007.7
20260509004504 50 0 0.0 0.0 0.00 0.00 0.00 50 1007.4
20260509004005 50 0 0.0 0.0 0.00 0.00 0.00 50 1007.3
20260509003505 50 0 0.0 0.0 0.00 0.00 0.00 48 1007.2
20260509001504 52 0 0.0 0.0 0.00 0.00 0.00 43 1007.0
20260509001004 52 0 0.0 0.0 0.00 0.00 0.00 42 1006.9
20260509000504 53 0 0.0 0.0 0.00 0.00 0.00 43 1006.8
20260509000004 53 0 0.0 0.0 0.00 0.00 0.00 42 1006.7
20260508234504 54 0 0.0 0.0 0.00 0.00 0.00 39 1006.6
20260508234004 54 0 0.0 0.0 0.00 0.00 0.00 40 1006.5
20260508233004 55 0 0.0 0.0 0.00 0.00 0.00 39 1006.3
20260508231504 56 0 0.0 0.0 0.00 0.00 0.00 38 1006.2
20260508231003 56 0 0.0 0.0 0.00 0.00 0.00 38 1006.2
20260508230004 56 0 0.0 0.0 0.00 0.00 0.00 38 1006.1
20260508224504 57 0 0.0 0.0 0.00 0.00 0.00 38 1006.0
20260508224005 57 0 0.0 0.0 0.00 0.00 0.00 37 1006.0
20260508223504 57 0 0.0 0.0 0.00 0.00 0.00 37 1005.9
20260508223004 57 0 0.0 0.0 0.00 0.00 0.00 36 1005.9
20260508221504 58 0 0.0 0.0 0.00 0.00 0.00 36 1005.7
20260508221004 58 0 0.0 0.0 0.00 0.00 0.00 36 1005.7
20260508220510 57 0 0.0 0.0 0.00 0.00 0.00 36 1005.8
20260508220010 57 0 0.0 0.0 0.00 0.00 0.00 38 1005.8
20260508214509 58 0 0.0 0.0 0.00 0.00 0.00 36 1005.6
20260508214009 57 0 0.0 0.0 0.00 0.00 0.00 37 1005.6
20260508213509 57 0 0.0 0.0 0.00 0.00 0.00 36 1005.6
20260508213010 58 0 0.0 0.0 0.00 0.00 0.00 35 1005.6
20260508211509 58 0 0.0 0.0 0.00 0.00 0.00 36 1005.5
20260508211009 57 0 0.0 0.0 0.00 0.00 0.00 36 1005.5
20260508210509 57 0 0.0 0.0 0.00 0.00 0.00 37 1005.3
20260508210009 58 0 0.0 0.0 0.00 0.00 0.00 37 1005.3
20260508204509 59 0 0.0 0.0 0.00 0.00 0.00 36 1005.2
20260508203510 58 0 0.0 0.0 0.00 0.00 0.00 36 1005.1
20260508201509 58 0 0.0 0.0 0.00 0.00 0.00 38 1004.9
20260508201009 59 0 0.0 0.0 0.00 0.00 0.00 38 1004.9
20260508200509 59 0 0.0 0.0 0.00 0.00 0.00 39 1004.8
20260508200009 59 0 0.0 0.0 0.00 0.00 0.00 37 1004.8
20260508194009 58 0 0.0 0.0 0.00 0.00 0.00 38 1004.7
20260508193509 59 0 0.0 0.0 0.00 0.00 0.00 38 1004.7
20260508193009 60 0 0.0 0.0 0.00 0.00 0.00 36 1004.6
20260508191508 59 0 0.0 0.0 0.00 0.00 0.00 37 1004.6
20260508191009 59 0 0.0 0.0 0.00 0.00 0.00 37 1004.5
20260508190009 59 0 0.0 0.0 0.00 0.00 0.00 37 1004.5
20260508184509 59 0 0.0 0.0 0.00 0.00 0.00 36 1004.4
20260508184009 59 0 0.0 0.0 0.00 0.00 0.00 35 1004.2
20260508183508 59 0 0.0 0.0 0.00 0.00 0.00 34 1004.3
20260508183009 59 0 0.0 0.0 0.00 0.00 0.00 34 1004.3
20260508181509 59 0 0.0 0.0 0.00 0.00 0.00 35 1004.4
20260508181008 59 0 0.0 0.0 0.00 0.00 0.00 34 1004.3
20260508180509 59 0 0.0 0.0 0.00 0.00 0.00 35 1004.4
20260508180008 59 0 0.0 0.0 0.00 0.00 0.00 34 1004.2
20260508174508 59 0 0.0 0.0 0.00 0.00 0.00 35 1004.3
20260508174008 60 0 0.0 0.0 0.00 0.00 0.00 35 1004.3
20260508173509 60 0 0.0 0.0 0.00 0.00 0.00 34 1004.3
20260508171508 61 0 0.0 0.0 0.00 0.00 0.00 36 1004.3
20260508170508 60 0 0.0 0.0 0.00 0.00 0.00 34 1004.2
20260508170009 58 0 0.0 0.0 0.00 0.00 0.00 37 1004.4
20260508164008 58 0 0.0 0.0 0.00 0.00 0.00 39 1004.5
20260508163508 58 0 0.0 0.0 0.00 0.00 0.00 38 1004.5
20260508163008 58 0 0.0 0.0 0.00 0.00 0.00 40 1004.6
20260508161508 59 0 0.0 0.0 0.00 0.00 0.00 38 1004.7
20260508161008 58 0 0.0 0.0 0.00 0.00 0.00 37 1004.7
20260508160508 57 0 0.0 0.0 0.00 0.00 0.00 38 1004.7
20260508154508 58 0 0.0 0.0 0.00 0.00 0.00 39 1004.8
20260508154008 58 0 0.0 0.0 0.00 0.00 0.00 40 1004.9
20260508153508 59 0 0.0 0.0 0.00 0.00 0.00 39 1004.7
20260508153008 59 0 0.0 0.0 0.00 0.00 0.00 37 1004.8
20260508151508 59 0 0.0 0.0 0.00 0.00 0.00 38 1004.8
20260508151008 59 0 0.0 0.0 0.00 0.00 0.00 37 1004.9
20260508150507 59 0 0.0 0.0 0.00 0.00 0.00 39 1004.9
20260508144508 59 0 0.0 0.0 0.00 0.00 0.00 39 1005.0
20260508144007 58 0 0.0 0.0 0.00 0.00 0.00 38 1005.0
20260508143508 58 0 0.0 0.0 0.00 0.00 0.00 43 1005.1
20260508143008 58 0 0.0 0.0 0.00 0.00 0.00 39 1005.0
20260508141508 57 0 0.0 0.0 0.00 0.00 0.00 40 1005.1
20260508141007 58 0 0.0 0.0 0.00 0.00 0.00 40 1005.3
20260508140508 58 0 0.0 0.0 0.00 0.00 0.00 41 1005.3
20260508140007 57 0 0.0 0.0 0.00 0.00 0.00 41 1005.3
20260508134508 56 0 0.0 0.0 0.00 0.00 0.00 43 1005.4
20260508134007 56 0 0.0 0.0 0.00 0.00 0.00 44 1005.6
20260508133507 56 0 0.0 0.0 0.00 0.00 0.00 44 1005.6
20260508131507 56 0 0.0 0.0 0.00 0.00 0.00 46 1005.7
20260508131008 55 0 0.0 0.0 0.00 0.00 0.00 48 1005.7
20260508130507 55 0 0.0 0.0 0.00 0.00 0.00 48 1005.6
20260508130007 55 0 0.0 0.0 0.00 0.00 0.00 48 1005.7
20260508124508 54 0 0.0 0.0 0.00 0.00 0.00 49 1005.7
20260508124007 53 0 0.0 0.0 0.00 0.00 0.00 47 1005.7
20260508123007 52 0 0.0 0.0 0.00 0.00 0.00 51 1005.7
20260508121507 50 0 0.0 0.0 0.00 0.00 0.00 54 1005.8
20260508121007 49 0 0.0 0.0 0.00 0.00 0.00 52 1005.9
20260508120507 49 0 0.0 0.0 0.00 0.00 0.00 54 1005.9